Location: Malcolm X Square
(37.7810°N, 122.4297°W)
Time: 22:27:36
(UTC+00:00)

Cosmos 1656 Rocket - Pass Details

Date: 13 April 2024
Orbit: 796 x 844 km, 71.1° (Epoch: 20 May)

Event Time Altitude Azimuth Distance (km) Brightness Sun altitude
Rises 12:54:42 0° 341° (NNW) 3,307 6.8 -8.8°
Reaches altitude 10° 12:57:09 10° 345° (NNW) 2,372 6.1 -8.3°
Maximum altitude 13:02:29 59° 65° (ENE) 914 4.3 -7.3°
Drops below altitude 10° 13:07:49 10° 145° (SE) 2,364 6.3 -6.3°
Sets 13:10:15 0° 149° (SSE) 3,295 7.0 -5.9°
